Location: アルンシュタイン
(50.0000°N, 10.0000°E)
Time: 05:41:59
(UTC+01:00)

Envisat - Pass Details

Date: 27 October 2021
Orbit: 764 x 766 km, 98.2° (Epoch: 04 December)

Event Time Altitude Azimuth Distance (km) Brightness Sun altitude
Rises 19:04:51 0° 219° (SW) 3,224 7.0 -10.1°
Reaches altitude 10° 19:08:27 10° 246° (WSW) 2,305 6.8 -10.7°
Maximum altitude 19:10:52 13° 275° (W) 2,083 6.6 -11.1°
Drops below altitude 10° 19:13:17 10° 303° (WNW) 2,313 6.3 -11.4°
Sets 19:16:55 0° 330° (NNW) 3,246 6.6 -12.0°
